Regional Weather Roundup
Issued by NWS

Home | Current Version | Previous Version | Text Only | Print | Product List | Glossary On
Versions: 1 2 3 4 5 6 7 8 9 10 11 12 13 14 15 16 17 18 19 20 21 22 23 24 25 26 27 28 29 30 31 32 33 34 35 36 37 38 39 40 41 42 43 44 45 46 47 48 49 50
301
ASUS43 KBIS 280110
RWRND

NORTH DAKOTA REGIONAL WEATHER ROUNDUP
NATIONAL WEATHER SERVICE BISMARCK ND
800 PM CDT MON MAR 27 2017

NOTE: "FAIR" INDICATES FEW OR NO CLOUDS BELOW 12,000 FEET WITH NO
SIGNIFICANT WEATHER AND/OR OBSTRUCTIONS TO VISIBILITY.


NDZ001>003-009>011-017-280200-
NORTHWEST NORTH DAKOTA

CITY           SKY/WX    TMP DP  RH WIND       PRES   REMARKS
WILLISTON      CLOUDY    53  32  44 NE9       29.94R
MINOT          CLOUDY    36  34  92 N7        29.99R FOG
MINOT AFB      FOG       34  34  99 E7        29.98S VSB 1/4
$$

NDZ018>021-031>035-040>046-280200-
SOUTHWEST NORTH DAKOTA

CITY           SKY/WX    TMP DP  RH WIND       PRES   REMARKS
BISMARCK       FAIR      56  32  40 E8        29.93R
DICKINSON      CLOUDY    53  26  35 E9        29.87R
GARRISON         N/A     42  37  82 N10       29.96R
HETTINGER ARPT CLEAR     54  29  38 SE8       29.90R
$$

NDZ004>008-012>016-024-026-027-054-280200-
NORTHEAST NORTH DAKOTA

CITY           SKY/WX    TMP DP  RH WIND       PRES   REMARKS
GRAND FORKS    FOG       39  39 100 NW6       30.03R VSB 1
GRND FRKS AFB  CLOUDY    39  38  99 NW6       30.03R
DEVILS LAKE    CLOUDY    39  39 100 E16       30.01R FOG
$$

NDZ022-023-025-028>030-036>039-047>053-280200-
SOUTHEAST NORTH DAKOTA

CITY           SKY/WX    TMP DP  RH WIND       PRES   REMARKS
FARGO          CLEAR     50  43  77 N7        29.98R
JAMESTOWN      FAIR      47  37  68 E7        29.95R
$$





USA.gov is the U.S. government's official web portal to all federal, state and local government web resources and services.